User: anonymous   Login
Location: Auckland
(36.8670°S, 174.7670°E)
Time: 05:12:08
(UTC+12:00)
Language:

Courier 1B - Orbit

View from above orbital plane
View from above orbital plane
View from above satellite
View from above satellite

Ground track
Ground track

The orbit data is extracted from the following two-line orbital elements,

1    58U 60013A   19201.86316664 +.00000102 +00000-0 +20973-4 0  9994
2    58 028.3295 341.9428 0164958 195.7540 163.7826 13.46317973893769
Epoch (UTC): 20 July 2019 20:42:57
Eccentricity: 0.0164958
inclination: 28.3295°
perigee height: 963 km
apogee height: 1209 km
right ascension of ascending node: 341.9428°
argument of perigee: 195.7540°
revolutions per day: 13.46317973
mean anomaly at epoch: 163.7826°
orbit number at epoch: 89376

The dashed part of the orbit path shows where the satellite is in the earth's shadow,  

DLR